カタログに戻る

STARLINK-11098

運用中通信VLEO
NORAD 59760·PAYLOAD·🇺🇸 United States

打ち上げ May 14, 2024 から Vandenberg Space Force Base

Loading…

次のパス (今後24時間)

TLE

最新Source: CelesTrak SupGP

元期: Sep 15, 2026, 02:35 UTC

1 59760C 24091H   26258.10812500 -.00006721  00000+0 -55363-4 0  2584
2 59760  53.1565 352.4303 0001001 101.2046 292.3153 15.69710976    17

AllMySatでSTARLINK-11098をリアルタイム追跡

Download on the App Store